Location: Pontbriand
(46.1542°N, 71.2542°W)
Time: 10:30:58
(UTC+00:00)

X-37B - Visible Passes

Search period start: 02 December 2021 00:00
Search period end: 12 December 2021 00:00
Orbit: 330 x 341 km, 45.0° (Epoch: 20 November)

Date Brightness Start Highest point End Pass type
(mag) Time Alt. Az. Time Alt. Az. Time Alt. Az.
06 Dec 2.7 23:02:16 10° SSW 23:03:24 17° S 23:03:24 17° S visible
07 Dec 3.0 23:22:04 10° SW 23:23:02 18° SW 23:23:02 18° SW visible
08 Dec 2.2 22:07:43 10° SSW 22:09:57 21° SSE 22:11:25 15° ESE visible
08 Dec 3.8 23:42:17 10° WSW 23:42:38 13° WSW 23:42:38 13° WSW visible
09 Dec 1.2 22:27:30 10° SW 22:30:12 38° SSE 22:30:58 30° ESE visible
10 Dec 0.5 22:47:43 10° WSW 22:50:30 59° S 22:50:30 59° S visible
11 Dec 1.4 21:32:56 10° SW 21:35:37 37° SSE 21:38:19 10° E visible
11 Dec 1.8 23:08:06 10° W 23:10:03 38° WSW 23:10:03 38° WSW visible
